Location: SE Lincoln, NE
(40.7805°N, 96.6275°W)
Time: 05:04:15
(UTC-05:00)

Cosmos 2315 Rocket - Pass Details

Date: 15 May 2021
Orbit: 965 x 1003 km, 82.9° (Epoch: 20 June)

Event Time Altitude Azimuth Distance (km) Brightness Sun altitude
Rises 21:44:23 0° 187° (S) 3,708 6.7 -11.5°
Reaches altitude 10° 21:46:54 10° 188° (S) 2,764 6.1 -11.9°
Maximum altitude 21:53:16 84° 276° (W) 1,013 4.1 -12.8°
Drops below altitude 10° 21:59:42 10° 6° (N) 2,781 6.9 -13.8°
Sets 22:02:14 0° 7° (N) 3,732 7.6 -14.1°
